sat.trackr.live / text

‹ back to catalog

ONEWEB-0571

NORAD 55150 · 2023-004L

PAYLOAD ACTIVE UNKNOWN

§ Identity

Operator
Country
UK
Launch date
2023-01-10
Launch site
AFETR
Launch vehicle
Mass (kg)
RCS (m²)

Purposes: comms

External: N2YO · Heavens-Above · Gunter

§ Orbital elements

Epoch: 2026-09-19T21:23:44.134656Z

Period
109.20 min
Inclination
87.9155°
Eccentricity
0.0000687
Mean motion
13.18685844 rev/d
Perigee alt
1,189.2 km
Apogee alt
1,190.3 km
Semi-major
7,567.9 km
B*
9.6093e-5
RAAN
316.6456°
Arg perigee
87.6090°
Mean anomaly
272.5121°
Rev number
18,218

§ Raw data

ONEWEB-05711 55150U 23004L   26262.89148304  .00000051  00000+0  96093-4 0  99962 55150  87.9155 316.6456 0000687  87.6090 272.5121 13.18685844182183

JSON: /api/v1/satellites/55150 · /tle

For live sub-satellite position, see the globe view (requires WebGL).

§ Visibility from observer

Set your observer location to see the next 7 days of passes ≥ 10°. The values pass through the URL so the page stays shareable.

No JS? Fill the form by hand. The geolocation button needs JavaScript.